Погода в Сорё

Дания     55°26′32″N   11°33′56″E
темп.,
°C
ветер,
м/с
пор.,
м/с
влажн.,
%
обл.,
%
осадки,
мм/ч
давл.,
гПа
погр.,
м
12 августа, пт
пт1223:00+18ююв22645 0.0 102413
02:00+16ююв22600 0.0 102412
05:00+15юв22670 0.0 102412
08:00+20юв23502 0.0 1023189
11:00+27вюв33285 0.0 10231090
14:00+29ююв23245 0.0 10221835
17:00+29ю12265 0.0 10211390
20:00+24юв23394 0.0 102168
13 августа, сб
сб1323:00+18юв23570 0.0 102221
02:00+17юв33634 0.0 102232
05:00+16юв22683 0.0 102117
08:00+21юв345036 0.0 1021155
11:00+28ююв333091 0.0 10201047
14:00+31юз3225100 0.0 10192444
17:00+30з332773 0.0 10181943
20:00+25ссв013743 0.0 101820
14 августа, вс
вс1423:00+19юв33552 0.0 101840
02:00+18юв22730 0.0 101811
05:00+17юв22775 0.0 101711
08:00+22вюв34595 0.0 1017173
11:00+28вюв443423 0.0 10151311
14:00+30вюв542934 0.0 10142220
17:00+29вюв5532100 0.0 10131807
20:00+24юв4754100 0.0 1013334
15 августа, пн
пн1523:00+18вюв41073100 0.0 1012205
02:00+17в4107868 0.0 1011192
05:00+17в4985100 0.5 1010194
08:00+20в498099 2.2 1008281
11:00+26вюв575270 0.0 1008848
14:00+29вюв77435 0.0 10061602
17:00+28вюв794433 0.0 10051328
20:00+24вюв6106576 0.1 1005514
16 августа, вт
вт1623:00+20вюв51287100 1.8 1005375
02:00+18в510916 2.7 1005213
05:00+18юв3893100 0.2 1004158
08:00+21юв4784100 1.3 1004273
11:00+25ююв555922 0.0 1004688
14:00+28ююз55460 0.0 10051445
17:00+28юз56463 0.0 10051630
20:00+25зюз59485 0.0 1006436